Track STARLINK-3640 now! 10-day predictions STARLINK-3640 is classified as:
1 51988U 22025AJ 22181.91667824 .00025695 00000-0 16274-2 0 9998 2 51988 53.2190 329.4994 0001538 57.9654 340.9344 15.08822908 1300